User: anonymous   Login
Location: The Jewett Observatory
(46.7288°N, 117.1525°W)
Time: 02:22:55
(UTC-08:00)
Language:

Cosmos 1844 Rocket - Orbit

View from above orbital plane
View from above orbital plane
View from above satellite
View from above satellite

Ground track
Ground track

The orbit data is extracted from the following two-line orbital elements,

1 17974U 87041B   15063.86333088  .00000098  00000-0  72438-4 0  9997
2 17974 071.0067 229.7006 0015833 234.4927 282.6063 14.17152753438332
Epoch (UTC): 04 March 2015 20:43:11
Eccentricity: 0.0015833
inclination: 71.0067°
perigee height: 823 km
apogee height: 846 km
right ascension of ascending node: 229.7006°
argument of perigee: 234.4927°
revolutions per day: 14.17152753
mean anomaly at epoch: 282.6063°
orbit number at epoch: 43833

The dashed part of the orbit path shows where the satellite is in the earth's shadow,  

DLR